Location: Napa Soda Springs
(38.3907°N, 122.2794°W)
Time: 20:07:51
(UTC+00:00)

Cosmos 2322 Rocket - Pass Details

Date: 29 October 2020
Orbit: 832 x 851 km, 71.0° (Epoch: 24 November)

Event Time Altitude Azimuth Distance (km) Brightness Sun altitude
Rises 13:23:04 0° 345° (NNW) 3,416 5.1 -14.2°
Reaches altitude 10° 13:25:46 10° 355° (N) 2,474 4.5 -13.7°
Maximum altitude 13:30:54 34° 60° (ENE) 1,360 3.8 -12.7°
Drops below altitude 10° 13:35:59 10° 124° (SE) 2,450 5.7 -11.7°
Sets 13:38:38 0° 134° (SE) 3,378 6.3 -11.2°
